Content
SEND FEEDBACK

Daily
Averages
Monthly
Summary
United States of America

SOUTH LAKE TAHOE, CALIFORNIA


Home > North America > United States > California
Elevation: 6263 feet     Latitude: 38 53N     Longitude: 119 59W

WEATHER
 
SELECT A DAY
Number of Records: 174,603;   Date Range: 1/1/95 - 9/16/14
 
SHARE

PRINT THIS DATA

[ ← Previous Day ]
WEATHER ALMANAC - SEPTEMBER 25, 2013
[ Next Day → ]
[ °C ]   °F
Weather ElementAverageHighLow
Temperature43.2 °F50 °F (1:53 pm)34 °F (11:53 pm)
Dewpoint24.8 °F30 °F (8:53 am)18 °F (2:53 pm)
Humidity50.3 %70 % (11:53 pm)28 % (2:53 pm)
Barometer29.78 in29.87 in (9:38 pm)29.75 in (1:53 am)
Wind Speed7 mph13.8 mph (8:53 am)
Wind Gust20.7 mph (9:53 am)
Weather ElementAverage
Visibility10 mi
Wind DirectionESE (119.2 °)

Weather ElementTotal
Precipitation---
Heating Degree Days23 (Base 65)
Averaged from 24 records on September 25, 2013
WEATHER CONDITIONS BREAKOUT
WIND DIRECTION BREAKOUT
WEATHER BY HOUR - SEPTEMBER 25, 2013
[ °C ]   °F
Local TimeTemperatureDewpointHumidityBarometerVisibilityWind DirectionWind SpeedGust SpeedPrecipitationEventsConditions
1:53 AM45.0 °F23.0 °F42 %29.75 in10.0 miSSW (210°)8.1 mph19.6 mphClear
2:53 AM44.1 °F25.0 °F47 %29.76 in10.0 miSSW (200°)8.1 mphClear
3:53 AM42.1 °F26.1 °F53 %29.75 in10.0 miSouth (180°)6.9 mph18.4 mphClear
4:53 AM41.0 °F27.0 °F57 %29.76 in10.0 miSSE (150°)4.6 mphClear
5:53 AM41.0 °F28.9 °F62 %29.77 in10.0 miSSE (150°)8.1 mphMostly Cloudy
6:53 AM42.1 °F27.0 °F55 %29.77 in10.0 miSouth (170°)4.6 mphOvercast
7:53 AM41.0 °F28.9 °F62 %29.79 in10.0 miSSW (200°)9.2 mphPartly Cloudy
8:53 AM42.1 °F30.0 °F62 %29.79 in10.0 miSouth (190°)13.8 mphScattered Clouds
9:53 AM46.0 °F28.0 °F50 %29.79 in10.0 miSouth (190°)13.8 mph20.7 mphScattered Clouds
10:53 AM48.0 °F25.0 °F41 %29.78 in10.0 miSouth (180°)12.7 mph20.7 mphClear
11:53 AM48.0 °F21.0 °F34 %29.77 in10.0 miVariable4.6 mph17.3 mphClear
12:53 PM48.9 °F19.9 °F32 %29.77 in10.0 miVariable6.9 mphClear
1:53 PM50.0 °F19.0 °F29 %29.76 in10.0 miSSW (200°)11.5 mph19.6 mphPartly Cloudy
2:53 PM50.0 °F18.0 °F28 %29.76 in10.0 miVariable6.9 mph17.3 mphClear
3:53 PM48.0 °F21.0 °F34 %29.77 in10.0 miSSW (210°)9.2 mph16.1 mphPartly Cloudy
4:53 PM48.0 °F21.9 °F36 %29.76 in10.0 miSSW (200°)9.2 mphClear
5:53 PM45.0 °F21.9 °F40 %29.78 in10.0 miSW (220°)8.1 mphClear
6:53 PM43.0 °F25.0 °F49 %29.78 in10.0 miSouth (170°)8.1 mphClear
7:53 PM39.0 °F26.1 °F60 %29.80 in10.0 miCalmClear
8:53 PM35.1 °F25.0 °F67 %29.81 in10.0 miCalmClear
9:38 PM37.4 °F26.6 °F65 %29.87 in10.0 miCalmMostly Cloudy
9:53 PM39.0 °F28.9 °F67 %29.79 in10.0 miVariable4.6 mphOvercast
10:53 PM37.9 °F27.0 °F65 %29.80 in9.0 miNE (40°)8.1 mph0.00 inOvercast
11:53 PM34.0 °F25.0 °F70 %29.81 in10.0 miCalmClear
Hourly data recorded from KTVL, located miles away from South Lake Tahoe, California







STORIES FROM OUR PARTNERS